Flag for Ukraine Weather past 2 weeks in Luhansk, Ukraine

Now
45 °F

Partly sunny.


Feels Like: 41 °F
Forecast: 34 / 43 °F
Wind: 6 mph from Northwest

Location: Rostov-Na-Donu

Current Time: Dec 19, 2014 at 3:31:33 PM

Latest Report: Dec 19, 2014 at 3:00 PM


Visibility: N/A

Pressure: 30.04 "Hg

Humidity: 87%

Dew point: 41 °F

Location of LuhanskLocation

Historic Weather in Luhansk — Graph

°F

Luhansk temperature yesterday

Maximum temperature yesterday: 45 °F (at 9:00 PM)
Minimum temperature yesterday: 32 °F (at 12:00 AM)
Average temperature yesterday: 37 °F

Past Weeks' High & Low Weather Summary

 TemperatureHumidityPressure
High50 °F (Dec 12, 12:30 PM)100% (Dec 5, 5:00 AM)30.57 "Hg (Dec 5, 5:00 AM)
Low5 °F (Dec 5, 12:30 AM)54% (Dec 5, 1:30 PM)29.92 "Hg (Dec 18, 9:30 PM)
Average31 °F96%30.24 "Hg
* Reported Dec 4 2:00 PM — Dec 19 2:30 PM, Luhansk, Weather by CustomWeather, © 2014

Note: Actual official high and low records may vary slightly from our data, if they occured in-between our weather recording intervals... More about our weather records

Advertising

Luhansk weather history for previous 24 hours

 ConditionsComfort  
Time TempWeatherWind HumidityBarometerVisibility
2:30 PM
Dec 19
46 °FPartly sunny.3 mph87%30.01 "HgN/A
2:00 PM46 °FBroken clouds.3 mph87%30.01 "HgN/A
1:30 PM46 °FBroken clouds.1 mph87%30.01 "HgN/A
1:00 PM48 °FBroken clouds.3 mph82%30.01 "HgN/A
12:30 PM46 °FPartly sunny.1 mph87%30.01 "HgN/A
12:00 PM45 °FBroken clouds.1 mph87%30.01 "HgN/A
11:30 AM43 °FBroken clouds.1 mph93%30.04 "HgN/A
11:00 AM43 °FBroken clouds.3 mph93%30.01 "HgN/A
10:00 AM43 °FMostly cloudy.6 mph93%30.01 "HgN/A
9:30 AM43 °FLight rain. Mostly cloudy.3 mph100%30.01 "Hg5 mi
9:00 AM43 °FLight rain. Mostly cloudy.3 mph100%29.98 "Hg5 mi
8:30 AM43 °FLight rain. Mostly cloudy.1 mph100%29.98 "Hg4 mi
8:00 AM45 °FLight rain. Fog.1 mph93%29.98 "Hg2 mi
7:30 AM45 °FLight rain. Fog.3 mph93%29.98 "Hg1 mi
6:30 AM45 °FDrizzle. Fog.6 mph100%29.95 "Hg1 mi
6:00 AM45 °FFog.8 mph93%29.95 "Hg2 mi
5:30 AM45 °FLight rain. Fog.6 mph100%29.95 "Hg1 mi
5:00 AM45 °FLight rain. Fog.6 mph100%29.95 "Hg1 mi
4:30 AM46 °FSprinkles. Fog.3 mph93%29.95 "Hg1 mi
4:00 AM46 °FFog.6 mph93%29.95 "Hg2 mi
3:30 AM46 °FFog.6 mph93%29.92 "Hg2 mi
3:00 AM45 °FFog.6 mph100%29.95 "Hg2 mi
2:30 AM45 °FLight rain. Fog.6 mph100%29.95 "Hg2 mi
2:00 AM45 °FLight rain. Fog.6 mph100%29.95 "Hg2 mi
1:30 AM46 °FLight rain. Fog.6 mph93%29.95 "Hg2 mi
1:00 AM46 °FFog.8 mph100%29.95 "Hg1 mi
12:30 AM46 °FSprinkles. Fog.8 mph100%29.95 "Hg1 mi
11:30 PM
Dec 18
45 °FFog.6 mph100%29.95 "Hg0 mi
11:00 PM45 °FLight rain. Fog.6 mph100%29.95 "Hg0 mi
10:30 PM45 °FSprinkles. Fog.8 mph100%29.95 "Hg0 mi
10:00 PM45 °FSprinkles. Fog.6 mph100%29.92 "Hg1 mi
9:30 PM45 °FLight rain. Fog.6 mph100%29.92 "Hg0 mi
9:00 PM45 °FLight rain. Fog.6 mph93%29.95 "Hg0 mi
8:30 PM43 °FLight rain. Fog.6 mph100%29.95 "Hg1 mi
8:00 PM43 °FLight rain. Fog.3 mph100%29.95 "Hg1 mi
7:30 PM43 °FLight rain. Fog.6 mph100%29.95 "Hg1 mi
7:00 PM43 °FLight rain. Dense fog.3 mph100%29.95 "Hg0 mi
6:30 PM43 °FLight rain. Fog.1 mph93%29.95 "Hg1 mi
6:00 PM41 °FLight rain. Fog.3 mph100%29.95 "Hg1 mi
5:30 PM41 °FLight rain. Fog.3 mph93%29.95 "Hg1 mi
5:00 PM41 °FFog.6 mph93%29.95 "Hg3 mi
4:30 PM41 °FLight rain. Mostly cloudy.3 mph93%29.95 "Hg4 mi
4:00 PM41 °FPartly sunny.1 mph87%29.95 "Hg4 mi
3:30 PM39 °FClear.6 mph93%29.95 "Hg4 mi
3:00 PM39 °FPartly sunny.3 mph93%29.95 "Hg4 mi
Weather by CustomWeather, © 2014

See weather overviewHow to use our weather pages